Temperature
13 13 12 12 12 12 12 12 12 12 12 12 12 12 12 12 12 12 12 12 12 12 12 12 12 12 12 13 13 13 13 13 13 13 14 14 14 14 14 14 15 15 15
13 13 13 12 12 12 12 12 12 12 12 12 12 12 12 12 12 12 12 12 12 12 12 12 12 12 12 12 12 12 13 13 13 13 13 13 13 13 14 14 14 14 15
14 13 13 13 12 12 12 12 12 12 12 12 12 12 12 12 12 12 12 12 12 12 12 12 12 12 12 12 12 12 12 12 12 12 13 13 13 13 13 14 14 14 14
14 13 13 13 13 12 12 12 12 12 12 12 12 12 12 12 12 12 12 12 12 12 12 12 12 12 12 12 12 12 12 12 12 12 12 12 12 13 13 13 13 14 14
14 14 13 13 13 13 13 13 12 12 12 12 12 12 12 12 12 12 12 12 12 12 12 12 12 12 12 12 12 12 12 12 12 12 12 12 12 12 12 13 13 13 13
14 14 14 13 13 13 13 13 13 13 13 12 12 12 12 12 13 13 12 12 12 12 12 12 11 12 12 12 12 12 12 12 12 12 12 12 12 12 12 12 12 13 13
14 14 14 14 14 13 13 13 13 13 13 13 13 12 12 12 13 13 13 12 12 12 12 12 11 11 12 11 12 12 12 12 12 12 12 12 12 12 12 12 12 12 12
15 14 14 14 14 14 14 13 13 13 13 13 13 13 13 13 13 13 13 12 12 12 12 12 12 11 11 12 12 12 12 11 11 12 12 11 12 12 12 12 12 12 12
15 15 14 14 14 14 14 14 13 13 13 13 13 13 13 13 13 13 13 12 12 12 12 12 12 11 12 12 12 11 11 11 11 12 12 12 12 12 12 12 12 12 12
15 15 15 15 15 14 14 14 14 14 14 13 13 13 13 13 13 13 13 12 12 12 12 12 12 12 12 12 12 11 11 11 11 11 11 11 12 12 12 12 11 11 12
16 15 15 15 15 14 14 14 14 14 14 13 13 13 13 13 13 13 13 12 12 12 12 12 11 12 12 12 12 11 11 11 11 11 11 11 11 11 11 11 11 11 11
16 16 15 15 15 14 14 14 14 14 13 13 13 13 13 13 13 13 13 13 12 12 12 12 12 12 12 12 12 12 12 11 11 11 11 11 11 11 11 11 11 11 11
16 16 15 15 15 14 14 14 13 13 13 13 12 12 12 12 12 13 13 12 12 12 12 12 12 12 11 11 11 11 11 11 11 11 11 11 11 11 11 11 11 11 11
16 15 15 15 14 14 14 13 13 12 12 12 12 12 12 12 12 12 12 12 12 12 11 11 11 11 11 11 11 11 11 11 11 11 10 10 11 11 10 10 11 11 11
15 15 15 14 14 13 13 13 13 13 12 12 12 11 11 11 11 11 11 11 11 11 11 11 10 10 10 10 10 10 10 10 10 10 10 10 10 10 10 10 10 10 10
15 15 15 14 14 13 13 13 12 12 12 12 11 11 11 11 11 11 11 11 11 11 10 10 10 10 10 10 9 9 9 9 9 9 9 9 9 9 9 9 9 9 10
15 15 14 14 13 13 12 12 11 11 11 11 11 11 11 10 10 10 10 10 10 10 9 9 9 9 9 8 8 8 8 8 8 8 8 8 8 8 8 8 9 9 9
15 15 14 13 13 12 11 11 10 10 10 10 10 10 10 10 9 9 9 9 9 9 8 8 8 7 7 7 7 7 7 7 7 7 7 7 7 7 7 7 7 7 8
15 14 14 13 12 12 11 10 10 9 9 9 8 8 9 8 8 8 8 8 8 7 7 7 7 6 6 6 6 6 6 6 6 6 6 6 6 6 6 6 6 6 6
14 14 13 12 12 11 10 10 9 9 8 8 8 7 7 7 7 7 7 7 6 6 6 5 5 5 5 5 5 5 5 5 5 5 5 5 5 5 5 5 5 5 5
14 13 12 12 11 10 10 9 9 8 8 7 7 7 7 6 6 6 6 5 5 5 5 4 4 4 4 4 4 4 4 4 4 4 4 4 4 4 4 3 3 3 3
13 12 11 11 10 10 9 9 8 8 7 7 6 6 6 6 5 5 5 5 4 4 4 4 3 3 3 3 3 3 3 3 3 3 3 3 2 2 2 2 2 2 2
12 11 11 10 9 9 8 8 7 7 7 6 6 5 5 5 5 4 4 4 3 3 3 3 3 3 3 2 2 2 2 2 2 2 2 2 1 1 1 1 0 0 1
11 10 10 9 9 8 8 7 7 6 6 6 5 5 4 4 4 4 3 3 3 3 3 2 2 2 2 2 2 2 2 2 1 1 1 0 0 0 -0 -0 -1 -1 -1
10 9 9 8 8 7 7 7 6 6 5 5 5 4 4 4 3 3 3 3 2 2 2 2 2 2 2 1 1 1 1 1 1 0 -0 -0 -1 -1 -1 -1 -1 -1 -1
9 8 8 8 7 7 6 6 6 5 5 5 4 4 4 3 3 3 2 2 2 1 1 1 1 1 1 1 1 1 1 0 0 -0 -1 -1 -1 -1 -2 -2 -2 -2 -2
Wind_Speed
3 2 2 1 1 2 2 3 3 4 4 4 4 5 5 4 3 2 2 2 2 2 2 2 2 1 1 2 2 3 3 4 5 5 4 4 4 4 3 4 5 5 6
4 3 2 1 1 2 2 2 3 3 4 4 4 4 4 4 4 3 3 2 2 2 2 2 1 1 1 2 2 3 3 4 5 5 5 4 5 5 4 5 4 5 5
5 4 3 3 2 2 2 2 2 3 3 3 3 4 4 4 4 3 2 2 2 2 2 2 2 2 2 2 2 3 3 3 4 5 5 4 5 4 5 5 5 5 6
6 5 4 3 2 2 1 2 2 2 3 3 3 3 3 3 3 3 2 2 2 2 2 2 3 3 3 2 2 3 3 3 3 4 4 4 4 4 4 5 5 5 5
7 6 5 4 3 2 2 2 2 2 2 3 3 3 3 3 3 4 3 3 2 2 2 2 3 3 5 4 3 3 3 3 3 4 4 4 4 4 4 4 5 5 6
8 7 6 5 4 3 3 2 2 2 2 2 3 2 3 2 4 5 5 3 2 2 2 2 2 1 1 1 2 3 4 4 3 3 4 4 5 5 4 5 5 5 5
9 7 7 6 5 4 4 3 3 3 2 3 3 2 2 2 1 3 4 3 3 3 3 2 2 2 3 3 1 3 2 2 4 5 4 5 5 5 5 5 6 6 6
9 8 7 7 6 5 5 4 4 3 3 3 3 3 2 2 1 3 5 3 2 2 2 2 2 3 4 4 3 2 2 2 2 4 3 4 4 5 5 6 7 6 6
9 9 8 7 6 6 5 5 4 4 4 4 3 3 3 2 2 3 6 3 2 2 2 2 2 2 4 5 3 3 3 2 2 3 4 5 6 6 6 5 5 5 5
10 9 8 7 6 6 5 5 4 4 4 4 4 4 3 3 0 2 7 3 3 2 2 1 1 3 5 6 4 3 4 4 4 3 3 4 5 4 5 5 5 5 5
9 8 7 7 6 5 4 4 4 4 4 4 4 4 4 3 1 2 4 4 3 3 3 2 1 2 3 5 6 5 5 6 6 5 4 3 3 3 3 3 4 4 5
9 8 8 7 5 4 4 3 3 3 4 4 4 3 3 2 1 1 1 3 5 3 3 2 1 3 1 3 4 5 6 7 4 4 4 4 4 4 4 4 4 5 6
9 9 8 7 5 4 4 3 3 3 3 3 3 3 2 1 1 2 2 2 3 3 1 4 4 2 2 2 1 4 5 4 4 4 4 4 4 5 5 5 5 5 6
10 9 8 7 6 4 2 2 1 1 2 2 2 2 1 1 1 1 1 2 4 3 2 3 3 1 1 2 3 2 3 4 4 4 5 5 5 5 5 5 5 5 5
11 9 8 7 6 5 4 3 1 3 2 1 1 1 2 2 5 7 4 2 1 1 0 1 1 1 2 3 3 4 4 4 4 5 5 5 5 6 5 5 5 6 6
11 10 8 7 6 6 6 6 9 7 10 9 7 5 4 6 7 7 8 7 7 4 1 2 3 4 4 4 5 5 5 6 6 6 6 6 6 6 6 6 6 6 6
11 10 8 7 7 7 7 6 6 7 9 10 10 9 8 8 8 7 7 7 7 4 4 4 4 4 4 4 4 5 5 6 6 6 6 6 7 7 7 7 7 7 7
11 9 9 7 7 7 6 6 5 5 5 5 8 10 9 9 9 7 3 4 6 6 5 4 4 4 4 4 5 5 5 5 6 6 6 6 7 7 7 7 7 8 8
11 9 8 8 7 7 6 6 5 5 5 5 5 7 7 7 8 6 3 5 5 5 5 4 4 4 4 4 5 5 5 5 6 6 6 7 7 7 7 8 8 9 9
10 11 10 9 8 8 7 7 6 6 6 5 4 4 4 3 4 5 5 5 4 4 4 4 4 4 4 4 5 5 5 6 6 6 7 7 7 7 8 9 9 9 9
10 11 12 9 8 8 8 7 7 6 6 5 5 4 3 3 4 4 4 4 4 4 4 4 4 4 4 4 5 5 6 6 6 7 7 7 8 8 8 9 9 9 10
11 11 10 9 9 8 8 7 7 7 7 7 6 6 2 2 3 3 3 3 3 3 3 3 3 3 4 4 5 5 6 6 7 7 8 8 8 9 9 9 9 10 10
12 12 11 10 9 10 9 8 7 7 7 6 6 5 4 3 3 2 2 2 2 2 2 3 3 3 4 5 5 5 6 6 7 8 9 9 9 9 9 10 11 12 11
12 13 12 11 10 10 9 9 8 7 7 6 6 5 4 3 2 2 1 1 1 1 2 3 3 5 6 6 5 5 6 8 10 9 11 10 10 10 10 11 11 13 12
12 12 12 11 10 10 9 9 8 8 7 6 5 5 4 3 2 1 1 0 1 2 3 4 4 5 6 7 7 6 8 10 11 12 12 10 11 12 12 12 12 13 13
12 12 11 10 10 9 9 9 8 8 7 6 5 5 4 3 2 2 1 1 2 3 4 4 5 7 8 7 7 8 10 12 13 14 14 11 11 11 12 12 15 14 15
Wind_Direction
218 224 236 274 303 311 329 341 338 343 351 359 6 3 6 7 3 356 349 352 338 332 305 284 279 282 260 253 244 235 234 241 254 267 271 269 269 269 265 263 252 247 230
210 216 229 249 271 300 328 335 339 349 357 3 10 13 12 8 6 4 3 6 4 348 336 331 327 320 294 276 261 258 253 251 257 267 271 273 273 272 268 264 258 249 248
197 209 220 228 252 282 310 330 332 343 352 2 7 12 12 9 8 5 6 12 16 9 357 349 344 328 296 284 267 266 266 263 258 259 270 276 275 273 270 265 258 258 254
194 207 218 227 234 258 282 305 316 331 342 348 357 4 5 2 358 4 11 18 19 16 1 351 344 338 325 310 278 264 263 263 259 260 265 271 274 276 267 265 262 253 253
197 207 216 221 223 239 253 271 292 311 322 337 342 349 359 355 357 354 355 359 6 7 8 10 10 2 352 333 318 305 284 269 258 260 267 274 276 273 268 266 266 269 262
201 207 208 217 220 231 244 256 272 284 299 315 322 333 343 349 20 348 323 337 345 355 2 360 9 355 13 293 311 327 321 297 282 269 270 274 280 279 280 274 268 265 263
202 205 204 209 216 227 232 239 251 259 273 286 295 305 313 4 18 321 310 314 330 342 347 348 358 355 329 334 221 210 242 260 275 282 282 285 289 292 281 274 272 269 269
202 203 203 208 214 219 224 235 248 260 263 270 284 291 293 308 284 284 288 278 304 322 327 328 327 343 358 342 326 317 325 315 289 276 286 292 296 298 286 279 281 277 273
202 204 202 204 210 217 224 233 243 252 257 260 268 276 276 267 211 261 278 270 275 288 305 325 325 340 26 329 307 315 322 324 217 234 283 289 298 297 292 278 274 269 269
199 202 200 202 208 219 230 241 242 244 253 259 259 265 272 281 139 257 276 262 268 278 284 278 54 342 355 330 309 313 317 330 327 308 262 247 264 253 246 262 274 277 279
190 192 194 199 208 219 230 236 240 243 249 253 257 256 260 277 232 228 276 269 272 277 281 285 8 78 337 327 310 321 337 321 307 307 309 307 298 292 274 269 271 274 278
180 185 190 194 199 203 212 226 234 238 244 249 255 260 259 254 294 145 267 275 297 276 283 297 33 84 350 334 328 352 325 302 297 306 311 318 322 324 316 303 288 275 269
179 183 185 184 185 193 201 209 222 234 253 265 267 276 282 295 158 163 217 235 258 260 293 40 38 26 281 235 48 331 310 308 318 318 322 325 323 319 315 304 290 281 278
183 183 183 183 179 174 171 190 205 239 254 266 283 293 310 324 336 330 262 201 190 209 216 151 164 180 278 347 341 330 343 352 339 330 327 325 322 316 308 306 301 298 289
184 181 182 178 171 158 136 84 90 62 27 353 346 340 339 359 30 17 350 345 350 36 351 139 61 41 25 18 11 11 5 2 355 348 340 336 334 330 325 321 315 309 301
185 181 178 172 165 158 143 112 66 70 70 61 45 32 62 61 58 56 56 53 50 39 60 78 57 43 31 22 11 9 12 10 2 355 351 347 342 337 333 332 327 318 313
185 178 173 172 168 167 163 156 138 108 89 74 67 63 68 68 67 66 69 71 63 63 78 69 58 47 35 27 20 14 11 8 1 358 355 354 349 344 342 340 339 334 326
180 171 169 168 170 171 170 169 164 160 144 112 86 76 77 75 67 57 59 96 77 70 66 61 53 43 32 24 19 13 6 3 2 359 357 354 351 345 342 340 338 338 329
171 167 166 162 164 165 163 161 157 153 143 133 125 108 100 102 90 61 52 74 73 68 62 56 46 36 27 19 14 5 0 358 357 353 354 351 347 342 339 336 332 331 324
164 153 156 159 160 160 160 159 156 153 149 143 135 123 129 126 96 82 72 69 70 66 57 51 41 29 19 13 6 358 352 353 352 349 347 344 342 338 334 331 330 328 325
157 156 158 160 162 161 160 159 156 154 149 140 124 93 39 111 98 88 78 69 60 53 45 35 27 17 10 2 354 349 346 345 345 342 340 338 336 332 328 325 323 322 321
159 160 165 161 158 160 158 157 155 151 147 141 133 129 139 127 106 96 85 73 59 43 30 15 9 10 359 350 345 341 339 339 341 340 335 331 328 324 322 321 320 319 317
160 159 160 158 155 151 156 156 156 154 151 149 147 147 149 135 125 113 97 75 51 31 18 4 355 354 352 347 344 338 336 341 338 332 327 323 320 318 316 314 313 313 313
160 161 159 158 157 160 161 159 158 157 156 156 157 157 155 151 147 133 110 66 21 359 355 347 339 335 337 335 333 333 341 342 332 323 319 313 311 309 309 308 307 307 307
161 161 162 162 162 164 163 163 163 163 164 165 165 165 165 168 169 171 180 301 320 323 327 324 323 325 327 324 323 328 348 338 324 319 313 307 305 305 304 303 303 303 302
161 162 163 164 165 167 167 168 170 169 171 171 172 174 177 183 192 205 229 274 302 309 312 315 318 319 317 316 327 335 327 316 312 310 308 304 301 301 303 301 301 300 299
Height
1503 1503 1503 1502 1501 1500 1499 1497 1496 1494 1493 1491 1489 1488 1487 1485 1484 1484 1483 1483 1482 1482 1482 1482 1482 1482 1482 1482 1483 1483 1484 1485 1485 1485 1485 1486 1486 1486 1486 1487 1487 1488 1490
1502 1502 1502 1501 1500 1500 1499 1498 1496 1495 1493 1492 1490 1489 1487 1486 1485 1484 1483 1483 1482 1482 1481 1481 1481 1481 1480 1481 1481 1481 1482 1482 1482 1482 1482 1483 1483 1483 1483 1483 1484 1484 1485
1500 1500 1500 1500 1500 1499 1499 1497 1496 1495 1494 1493 1491 1490 1489 1487 1486 1485 1484 1483 1483 1482 1481 1481 1481 1480 1480 1480 1479 1479 1479 1479 1479 1480 1480 1480 1480 1480 1480 1480 1480 1480 1481
1498 1499 1499 1499 1499 1498 1498 1497 1496 1495 1494 1493 1492 1491 1489 1488 1487 1486 1485 1484 1483 1482 1481 1481 1480 1480 1479 1479 1478 1478 1477 1477 1477 1477 1477 1477 1477 1476 1476 1476 1477 1477 1477
1497 1497 1498 1498 1498 1497 1497 1496 1496 1495 1494 1493 1492 1491 1490 1488 1487 1486 1485 1485 1484 1483 1482 1481 1480 1479 1478 1477 1477 1476 1476 1476 1475 1475 1475 1474 1474 1474 1473 1473 1473 1473 1473
1495 1496 1496 1496 1496 1496 1496 1496 1495 1494 1494 1493 1492 1491 1490 1489 1487 1486 1485 1484 1484 1483 1482 1481 1480 1479 1478 1476 1476 1475 1474 1474 1473 1473 1473 1472 1471 1471 1470 1470 1470 1470 1470
1493 1494 1494 1495 1495 1495 1495 1495 1494 1494 1493 1492 1491 1491 1490 1489 1487 1486 1485 1484 1483 1483 1482 1481 1480 1478 1477 1477 1475 1474 1473 1472 1472 1471 1471 1470 1469 1468 1467 1467 1467 1466 1466
1490 1491 1492 1493 1493 1494 1494 1494 1493 1493 1492 1491 1491 1490 1489 1488 1487 1486 1485 1484 1483 1482 1481 1480 1479 1478 1477 1476 1475 1474 1473 1472 1471 1470 1469 1468 1467 1466 1465 1464 1463 1463 1462
1487 1489 1490 1491 1491 1492 1492 1492 1492 1491 1491 1490 1489 1489 1488 1487 1486 1485 1484 1484 1483 1482 1481 1480 1479 1478 1476 1475 1474 1473 1472 1471 1469 1468 1467 1465 1464 1463 1462 1462 1461 1460 1459
1484 1486 1487 1488 1489 1489 1490 1490 1490 1489 1489 1488 1488 1487 1486 1486 1485 1484 1483 1483 1482 1482 1480 1479 1477 1476 1475 1474 1474 1473 1472 1470 1469 1467 1466 1464 1462 1461 1460 1459 1459 1458 1457
1481 1483 1484 1485 1486 1487 1487 1487 1487 1487 1486 1486 1485 1485 1484 1483 1483 1482 1481 1481 1481 1480 1479 1478 1477 1475 1474 1473 1472 1471 1470 1468 1467 1466 1465 1463 1462 1460 1459 1458 1456 1456 1455
1478 1480 1481 1482 1483 1484 1484 1484 1484 1484 1484 1484 1483 1483 1482 1481 1480 1479 1479 1478 1478 1478 1477 1476 1475 1473 1473 1472 1471 1470 1468 1467 1466 1465 1464 1462 1461 1459 1458 1456 1455 1454 1452
1475 1477 1478 1479 1480 1481 1481 1482 1482 1481 1481 1481 1481 1480 1480 1478 1477 1476 1476 1475 1475 1475 1474 1473 1473 1472 1471 1470 1469 1468 1467 1466 1465 1464 1462 1461 1459 1457 1456 1454 1453 1451 1450
1472 1473 1475 1476 1477 1478 1478 1478 1479 1479 1479 1478 1478 1477 1477 1476 1475 1474 1473 1473 1472 1472 1472 1471 1470 1470 1469 1468 1467 1466 1465 1464 1463 1462 1460 1459 1457 1456 1454 1452 1451 1449 1448
1468 1470 1471 1473 1474 1474 1475 1475 1475 1475 1476 1476 1475 1475 1474 1474 1472 1471 1471 1471 1470 1470 1469 1469 1469 1468 1467 1467 1466 1465 1463 1462 1461 1460 1458 1457 1455 1454 1452 1450 1449 1447 1446
1464 1466 1467 1469 1470 1471 1471 1472 1472 1472 1472 1472 1472 1472 1471 1471 1470 1469 1469 1468 1468 1467 1468 1467 1467 1466 1465 1464 1464 1463 1462 1460 1459 1458 1456 1455 1453 1451 1450 1448 1446 1445 1443
1459 1461 1463 1464 1466 1467 1468 1469 1469 1470 1470 1470 1470 1469 1469 1468 1468 1467 1466 1466 1466 1466 1466 1465 1465 1464 1463 1463 1462 1461 1460 1458 1457 1456 1454 1453 1451 1449 1448 1446 1444 1442 1441
1454 1456 1458 1460 1462 1463 1465 1466 1467 1468 1468 1467 1467 1467 1467 1466 1466 1466 1465 1465 1465 1464 1464 1464 1463 1463 1462 1461 1460 1459 1458 1457 1455 1454 1452 1451 1449 1447 1445 1443 1442 1440 1437
1449 1451 1454 1456 1457 1459 1461 1462 1464 1465 1465 1466 1466 1465 1465 1465 1465 1465 1464 1464 1464 1463 1463 1463 1462 1462 1461 1460 1459 1458 1456 1455 1454 1452 1450 1448 1447 1445 1443 1441 1439 1437 1434
1444 1446 1449 1451 1454 1456 1457 1459 1460 1462 1463 1464 1464 1464 1464 1465 1465 1464 1464 1463 1463 1463 1462 1462 1461 1460 1459 1458 1457 1456 1455 1453 1452 1450 1448 1446 1444 1442 1440 1438 1436 1434 1431
1438 1442 1445 1447 1450 1452 1454 1456 1457 1459 1460 1461 1462 1462 1462 1464 1464 1463 1463 1463 1463 1462 1462 1461 1460 1459 1458 1457 1455 1454 1453 1451 1449 1447 1445 1443 1441 1439 1437 1435 1432 1430 1428
1433 1437 1440 1443 1446 1448 1450 1453 1455 1456 1458 1459 1460 1460 1460 1462 1462 1462 1462 1462 1461 1460 1460 1459 1458 1457 1456 1454 1453 1452 1450 1448 1446 1444 1442 1440 1437 1435 1433 1430 1428 1426 1423
1429 1432 1436 1439 1442 1444 1447 1449 1452 1454 1455 1457 1458 1459 1459 1460 1460 1460 1460 1460 1459 1459 1458 1457 1456 1455 1453 1452 1450 1448 1447 1445 1443 1440 1438 1435 1433 1431 1428 1426 1423 1421 1419
1424 1428 1431 1435 1438 1441 1444 1446 1449 1451 1452 1454 1455 1457 1457 1458 1458 1459 1458 1458 1457 1456 1455 1454 1453 1452 1450 1448 1446 1445 1443 1440 1438 1436 1434 1431 1429 1426 1424 1421 1419 1416 1414
1419 1423 1427 1431 1434 1437 1441 1443 1446 1448 1450 1452 1453 1454 1455 1456 1456 1456 1456 1455 1454 1454 1452 1451 1450 1448 1446 1444 1443 1441 1438 1436 1434 1431 1429 1427 1424 1422 1419 1416 1414 1411 1409
1416 1420 1424 1427 1431 1434 1437 1440 1442 1445 1447 1449 1450 1451 1452 1453 1453 1454 1453 1452 1451 1450 1449 1448 1446 1444 1442 1440 1438 1436 1433 1431 1429 1426 1424 1421 1419 1417 1414 1411 1408 1406 1403